This demonstration page uses our WeatherBlox Daily Observations layout. Learn more.

Left ArrowRight Arrow

53.62937, 11.41316

Hourly Observations for August 4, 2021

Temp ( °F °C ) Dew Point ( °F °C ) Humidity (%) Winds ( mph kmh ) Pressure ( in mb ) Visibility ( mi km ) Precip ( " mm )
7:20 am 07:20 Mostly Sunny 59 15 54 12 82 82 VRB 1 2 29.94 1014 7 11 N/A
7:50 am 07:50 Mostly Sunny 61 16 55 13 83 83 VRB 2 4 29.94 1014 7 11 N/A
8:20 am 08:20 Mostly Sunny 63 17 52 11 68 68 VRB 2 4 29.94 1014 7 11 N/A
8:50 am 08:50 Mostly Sunny 64 18 52 11 64 64 VRB 2 4 29.97 1015 7 11 N/A
9:20 am 09:20 Mostly Sunny 64 18 55 13 73 73 NNE 7 11 29.94 1014 7 11 N/A
9:50 am 09:50 Mostly Sunny 66 19 55 13 68 68 NE 9 15 29.97 1015 30 48 N/A
10:20 am 10:20 Partly Cloudy 64 18 54 12 68 68 NE 8 13 29.97 1015 30 48 N/A
10:50 am 10:50 Partly Cloudy 66 19 55 13 68 68 NNE 7 11 29.94 1014 30 48 N/A
11:20 am 11:20 Partly Cloudy 66 19 55 13 68 68 NNE 7 11 29.97 1015 30 48 N/A
11:50 am 11:50 Partly Cloudy 66 19 55 13 68 68 NNE 9 15 29.94 1014 30 48 N/A
12:20 pm 12:20 Mostly Sunny 66 19 55 13 68 68 NNE 9 15 29.97 1015 7 11 N/A
12:50 pm 12:50 Mostly Sunny 66 19 55 13 68 68 NNE 10 17 29.94 1014 7 11 N/A
1:20 pm 13:20 Mostly Sunny 68 20 55 13 64 64 NE 12 19 29.94 1014 7 11 N/A
1:50 pm 13:50 Mostly Sunny 70 21 55 13 60 60 NNE 10 17 29.94 1014 7 11 N/A
2:20 pm 14:20 Mostly Sunny 72 22 55 13 57 57 NNE 10 17 29.94 1014 7 11 N/A
2:50 pm 14:50 Mostly Sunny 70 21 55 13 60 60 NNE 12 19 29.94 1014 30 48 N/A
3:20 pm 15:20 Partly Cloudy with Showers Nearby 70 21 54 12 57 57 NNE 12 19 29.94 1014 30 48 N/A
3:50 pm 15:50 Partly Cloudy with Showers Nearby 70 21 54 12 57 57 NNE 12 19 29.94 1014 30 48 N/A
4:20 pm 16:20 Partly Cloudy with Nearby Thunderstorms 64 18 54 12 68 68 VRB 5 7 29.94 1014 30 48 N/A
4:50 pm 16:50 Mostly Cloudy with Light Showers 63 17 57 14 83 83 SSE 5 7 29.94 1014 30 48 N/A
5:20 pm 17:20 Mostly Cloudy with Light Showers 63 17 59 15 88 88 ESE 5 7 29.94 1014 30 48 N/A
5:50 pm 17:50 Partly Cloudy with Showers Nearby 63 17 59 15 88 88 E 6 9 29.94 1014 30 48 N/A
6:20 pm 18:20 Partly Cloudy with Showers Nearby 63 17 59 15 88 88 NNE 3 6 29.94 1014 30 48 N/A
6:50 pm 18:50 Mostly Sunny 63 17 59 15 88 88 ENE 5 7 29.94 1014 7 11 N/A
7:20 pm 19:20 Mostly Sunny 64 18 59 15 83 83 NNE 5 7 29.91 1013 7 11 N/A
7:50 pm 19:50 Mostly Sunny 64 18 57 14 78 78 NE 3 6 29.91 1013 7 11 N/A
8:20 pm 20:20 Mostly Sunny 64 18 57 14 78 78 NE 3 6 29.94 1014 7 11 N/A
8:50 pm 20:50 Mostly Sunny 61 16 57 14 88 88 ENE 3 6 29.94 1014 7 11 N/A
9:20 pm 21:20 Mostly Clear 61 16 55 13 83 83 ENE 3 6 29.94 1014 7 11 N/A
9:50 pm 21:50 Mostly Clear 59 15 55 13 88 88 NNE 2 4 29.94 1014 7 11 N/A

Powered by AerisWeather